Wind_Speed
9 9 9 10 10 11 12 13 13 12 11 11 11 11 10 9 8 8 7 7 7 7 7 7 7 7 7 7 7 7 7 7 7 7 7 7 7 7 7 7 7 8 8
8 8 8 9 9 10 11 11 12 11 10 11 10 10 10 9 8 8 7 7 6 6 6 6 6 6 6 6 6 7 7 7 8 8 8 8 8 8 7 7 7 8 8
7 7 7 7 8 9 10 10 11 11 11 10 10 10 9 9 8 7 6 6 6 5 6 6 6 6 6 6 6 7 7 7 8 8 8 8 8 8 8 8 8 8 8
6 7 7 7 8 8 9 10 10 10 10 10 9 9 8 8 7 7 6 6 6 5 6 6 5 5 6 6 6 7 8 8 8 9 9 8 8 7 7 7 8 8 8
6 6 7 8 8 8 9 10 10 10 9 9 8 8 8 7 7 7 7 7 7 6 6 5 5 5 5 6 7 7 7 8 8 9 9 8 7 7 7 7 7 8 8
5 6 7 8 8 8 9 9 9 9 9 9 8 7 7 7 6 6 6 6 7 7 6 6 6 6 6 6 7 7 7 7 8 8 8 8 7 7 7 7 7 7 7
5 6 7 8 8 8 9 9 9 9 8 7 7 7 7 6 6 6 6 7 7 6 6 6 6 6 6 6 7 6 6 7 7 7 7 8 7 7 6 6 7 7 7
5 6 7 7 7 8 8 8 8 8 8 7 7 6 6 6 5 6 6 6 6 6 6 6 6 6 5 6 6 6 6 6 7 7 7 7 7 7 6 7 7 6 6
6 6 6 7 7 7 7 7 7 7 7 7 6 6 6 5 5 5 6 6 5 5 6 6 6 6 5 5 5 6 6 6 6 6 6 6 6 6 6 6 6 6 6
6 6 6 6 6 6 6 6 7 6 6 6 6 6 5 5 5 5 5 5 5 5 5 5 5 6 5 5 5 5 5 5 6 5 5 5 5 5 6 6 5 5 5
5 5 5 5 5 6 5 5 5 6 6 5 5 5 5 5 5 4 4 4 4 4 4 4 5 5 5 5 5 5 5 5 5 5 5 5 4 5 5 5 4 4 4
5 4 4 4 4 4 4 4 5 5 5 5 5 5 4 4 4 3 3 3 3 3 3 3 4 5 5 4 4 4 4 4 4 4 4 4 4 4 4 4 4 4 4
5 4 4 4 4 4 4 3 4 4 4 4 4 3 3 4 4 3 3 3 2 3 2 2 3 3 4 3 3 3 3 2 2 3 3 3 3 3 3 3 3 3 3
5 4 3 2 3 3 3 3 3 3 3 3 2 3 2 3 3 3 2 2 2 2 2 2 2 2 2 2 2 2 2 2 2 2 2 2 2 2 3 2 2 2 2
5 4 2 1 1 2 2 3 2 2 2 2 2 1 1 2 2 2 2 1 1 1 1 1 1 1 1 1 1 1 2 2 2 2 2 1 2 2 2 2 2 2 2
5 4 2 1 1 1 2 2 2 2 2 2 2 1 2 2 2 1 1 1 1 1 1 1 1 1 1 0 0 0 1 1 2 2 2 1 0 1 1 1 1 1 2
5 4 2 1 1 2 2 2 3 3 2 2 2 2 2 2 2 2 2 2 2 2 1 1 1 2 1 1 1 1 1 1 1 2 1 1 0 0 0 0 1 1 2
5 4 3 3 2 2 3 4 3 3 3 3 2 2 2 2 2 3 3 3 4 3 3 2 2 3 3 3 2 2 2 1 1 2 1 1 1 1 1 1 1 2 2
6 6 5 4 3 3 3 4 5 4 4 4 4 3 4 3 3 3 3 4 4 4 4 3 3 3 4 3 3 3 3 3 2 2 2 2 2 2 2 2 2 3 3
8 7 5 5 4 4 4 5 6 6 6 6 5 5 5 5 4 4 4 5 5 5 5 5 5 5 5 5 5 5 4 4 4 4 4 3 3 3 3 4 4 4 4
9 8 6 6 5 4 5 6 7 7 8 8 7 7 6 6 6 6 5 6 7 7 6 6 6 6 6 6 6 6 6 6 6 6 5 5 4 4 5 5 5 6 6
10 9 8 6 6 5 6 7 8 8 8 9 9 9 8 7 7 8 7 7 8 8 8 7 7 7 7 8 8 8 8 7 7 7 7 6 6 6 6 6 6 7 7
10 9 8 7 6 6 7 7 8 9 9 9 9 9 9 9 9 8 8 7 8 9 9 9 9 8 8 9 10 10 9 9 9 9 9 8 8 8 8 8 8 8 8
10 10 10 8 8 7 7 7 8 9 9 9 9 10 10 10 9 9 10 9 9 10 10 10 10 10 10 11 11 11 11 11 10 11 11 11 10 10 10 9 9 9 9
10 11 12 11 10 10 8 8 8 9 9 9 9 10 10 10 10 11 11 11 10 11 12 12 12 12 11 12 13 12 12 12 12 12 12 12 12 13 12 12 12 11 12
12 12 13 11 10 10 9 8 8 8 9 9 10 11 11 11 12 12 12 12 12 12 13 13 13 13 13 13 14 14 14 14 14 14 13 14 14 14 14 14 14 14 14
Wind_Direction
88 90 92 91 88 89 89 88 87 87 92 91 91 90 87 88 90 91 90 94 98 101 98 99 100 97 94 93 91 92 91 88 87 88 88 85 84 87 86 87 92 95 95
86 91 94 93 90 90 89 86 85 84 92 92 92 88 85 86 90 93 93 96 95 98 100 98 95 94 96 92 88 85 88 85 85 86 84 83 85 85 86 88 94 97 96
87 93 93 92 90 89 88 88 86 84 85 86 87 85 85 84 85 89 92 93 93 93 94 90 88 93 91 91 91 86 89 85 85 84 83 83 86 84 86 88 96 95 97
83 91 94 92 89 88 89 89 88 85 83 81 81 80 82 84 88 88 88 92 92 88 90 84 87 87 85 88 85 86 88 86 83 84 82 82 83 82 85 88 94 93 96
83 88 92 91 88 88 91 89 87 86 82 79 76 75 75 80 86 87 89 90 85 84 81 79 84 82 84 80 83 86 86 86 84 83 79 78 80 81 85 90 93 92 93
91 90 91 89 89 88 89 90 89 86 83 78 74 73 75 76 79 82 86 87 82 79 78 82 82 83 83 84 86 86 87 86 83 81 78 74 76 79 83 88 93 94 93
93 93 92 93 90 90 87 89 89 85 82 77 72 72 75 72 72 74 84 87 83 82 79 79 81 83 84 86 89 88 87 85 81 79 76 73 74 75 78 87 92 93 94
87 92 94 94 92 90 89 88 88 86 84 81 76 72 72 75 69 75 80 80 79 76 75 82 84 84 84 89 90 88 84 81 81 76 73 69 68 70 74 79 88 93 95
80 84 90 93 93 92 91 89 87 87 87 88 86 81 80 78 79 76 79 78 75 71 74 83 84 85 85 89 90 88 83 81 77 72 72 67 67 70 71 79 84 89 93
71 75 85 92 97 99 97 93 88 89 93 96 94 90 84 79 77 76 68 73 75 76 79 85 84 88 91 94 92 88 84 79 76 69 66 62 66 71 70 75 82 86 90
61 73 84 94 104 103 100 96 94 92 95 100 99 97 92 85 79 76 73 76 79 81 82 88 87 89 93 94 93 87 78 73 71 65 61 61 68 71 71 70 73 78 83
57 73 88 96 108 110 107 104 103 97 99 104 106 103 100 92 87 87 91 84 85 84 84 87 88 94 92 92 94 90 78 64 62 62 61 61 68 69 70 67 65 71 71
51 67 91 101 115 123 123 121 115 110 108 114 120 121 115 93 84 84 86 84 87 92 87 84 87 97 100 95 94 92 76 53 46 53 58 58 66 66 66 65 65 66 62
42 55 82 102 120 132 141 141 131 122 117 121 143 145 112 92 94 95 96 93 105 94 91 100 104 96 103 99 79 74 60 48 43 43 44 54 63 69 67 72 67 65 58
31 43 68 90 126 139 153 161 151 141 134 133 143 140 124 119 111 109 116 118 137 118 101 107 122 112 99 84 67 55 41 33 29 34 41 48 67 73 67 68 67 61 43
14 22 41 85 167 183 179 183 180 171 161 161 171 181 175 169 176 163 170 181 171 173 173 151 181 187 173 314 339 3 16 359 13 15 15 27 75 91 76 61 38 30 19
359 2 7 0 267 228 218 211 202 197 188 179 183 183 176 185 212 231 239 235 219 213 229 238 224 207 208 233 237 212 220 343 329 335 334 332 291 221 101 6 338 337 339
341 337 335 319 277 247 229 220 222 218 211 206 209 212 217 226 239 251 262 261 242 239 243 246 245 224 221 232 235 238 239 259 289 307 311 312 293 270 276 288 304 310 308
328 322 319 318 288 247 232 228 229 232 223 221 229 241 247 248 254 257 266 263 250 248 243 244 254 241 241 236 235 242 246 254 261 272 281 284 276 269 275 278 288 299 296
324 319 315 312 300 255 241 240 241 239 229 227 232 247 249 250 257 259 269 261 256 256 252 248 259 251 248 244 244 248 254 257 256 256 262 273 271 267 270 269 278 289 293
317 321 313 301 297 264 248 245 248 247 233 229 231 241 250 252 260 266 262 258 255 256 254 252 259 257 251 249 250 253 254 258 256 255 260 268 272 267 266 271 277 284 286
311 313 314 302 300 284 270 258 247 247 241 240 240 243 249 257 266 271 269 262 257 257 257 258 256 256 253 252 252 255 257 259 259 256 255 261 266 268 270 273 278 281 282
303 299 298 297 297 289 277 263 252 247 246 246 248 248 251 256 265 272 271 268 260 257 258 259 256 253 255 254 255 256 257 260 262 260 260 263 266 267 269 271 275 277 279
301 289 293 286 279 277 277 265 262 253 246 245 247 249 252 256 261 266 269 271 262 257 258 259 256 256 256 256 256 255 257 258 260 263 263 266 270 270 270 273 276 279 277
292 289 284 280 272 270 275 270 266 258 252 249 248 250 253 258 264 267 269 270 267 261 258 257 257 256 257 257 257 256 257 258 259 261 265 268 270 270 270 274 277 279 278
282 284 287 281 276 274 273 271 266 260 257 254 253 254 258 262 265 266 267 267 267 263 259 258 255 255 257 257 257 256 258 260 263 263 266 268 269 270 270 273 275 276 277
Height
5881 5881 5881 5882 5882 5882 5882 5883 5883 5883 5884 5885 5886 5887 5888 5889 5889 5890 5891 5891 5892 5892 5892 5893 5893 5893 5893 5893 5893 5894 5894 5894 5894 5894 5893 5893 5893 5893 5893 5893 5893 5893 5893
5883 5883 5883 5883 5884 5884 5884 5884 5885 5886 5887 5887 5888 5889 5890 5890 5891 5892 5892 5893 5893 5894 5894 5894 5894 5895 5895 5895 5895 5895 5895 5895 5895 5895 5894 5894 5894 5894 5894 5894 5894 5894 5894
5885 5885 5885 5885 5885 5886 5886 5886 5887 5888 5889 5890 5890 5891 5892 5892 5893 5893 5894 5894 5895 5895 5895 5895 5896 5896 5896 5896 5896 5896 5896 5896 5896 5896 5895 5895 5895 5895 5895 5895 5895 5895 5895
5886 5887 5887 5887 5887 5888 5888 5888 5889 5890 5891 5891 5892 5893 5893 5894 5894 5895 5895 5896 5896 5896 5897 5897 5897 5897 5897 5897 5897 5897 5897 5897 5897 5897 5897 5897 5897 5896 5896 5896 5896 5896 5896
5888 5888 5888 5889 5889 5889 5890 5890 5891 5891 5892 5893 5894 5894 5895 5895 5896 5896 5896 5897 5897 5898 5898 5898 5898 5898 5898 5898 5898 5899 5898 5898 5898 5898 5898 5898 5898 5898 5897 5898 5898 5898 5897
5890 5890 5890 5890 5890 5891 5891 5891 5892 5893 5893 5894 5895 5895 5896 5897 5897 5897 5898 5898 5898 5899 5899 5899 5899 5899 5899 5900 5899 5900 5900 5899 5899 5899 5899 5899 5899 5899 5899 5899 5899 5899 5899
5890 5890 5890 5891 5891 5892 5892 5893 5893 5894 5895 5895 5896 5897 5897 5898 5898 5899 5899 5899 5900 5900 5900 5900 5900 5900 5900 5901 5901 5901 5901 5901 5901 5901 5901 5901 5900 5900 5900 5900 5900 5900 5900
5891 5891 5891 5892 5892 5893 5893 5894 5894 5895 5896 5896 5897 5898 5899 5899 5899 5900 5900 5900 5901 5901 5901 5901 5901 5902 5902 5902 5902 5902 5902 5902 5902 5902 5902 5902 5902 5901 5901 5901 5901 5901 5901
5892 5892 5892 5892 5893 5894 5894 5895 5895 5896 5896 5897 5898 5899 5900 5900 5900 5901 5901 5901 5902 5902 5902 5902 5902 5902 5903 5903 5903 5903 5903 5903 5903 5903 5903 5903 5903 5903 5902 5902 5902 5902 5902
5893 5893 5893 5893 5894 5895 5895 5896 5896 5896 5897 5898 5899 5899 5900 5901 5901 5901 5902 5902 5902 5903 5903 5903 5903 5903 5903 5904 5904 5904 5904 5904 5904 5904 5904 5904 5904 5904 5903 5903 5903 5903 5903
5894 5894 5894 5894 5895 5895 5896 5896 5897 5897 5898 5898 5899 5900 5901 5901 5902 5902 5903 5903 5903 5903 5903 5903 5904 5904 5904 5905 5905 5905 5905 5905 5905 5905 5905 5905 5905 5904 5904 5904 5904 5904 5904
5895 5894 5894 5895 5895 5896 5896 5897 5897 5898 5898 5899 5899 5900 5901 5901 5902 5903 5903 5903 5904 5904 5904 5904 5904 5905 5905 5905 5906 5906 5906 5906 5906 5906 5906 5906 5905 5905 5905 5905 5905 5905 5905
5895 5895 5895 5895 5896 5896 5897 5897 5898 5899 5899 5899 5900 5900 5901 5902 5902 5903 5904 5904 5904 5904 5905 5905 5905 5906 5906 5906 5906 5907 5907 5907 5907 5906 5906 5906 5906 5906 5906 5906 5906 5906 5906
5896 5896 5896 5896 5896 5897 5897 5898 5898 5899 5899 5900 5900 5900 5901 5902 5903 5903 5904 5904 5905 5905 5905 5905 5906 5906 5906 5907 5907 5907 5907 5907 5907 5907 5907 5907 5907 5907 5906 5906 5906 5906 5906
5897 5896 5896 5896 5897 5897 5897 5898 5898 5899 5899 5900 5900 5901 5901 5902 5903 5903 5904 5904 5905 5905 5905 5906 5906 5906 5907 5907 5907 5907 5907 5907 5907 5907 5907 5907 5907 5907 5907 5907 5907 5906 5906
5897 5897 5896 5897 5897 5897 5898 5898 5898 5899 5899 5900 5900 5901 5901 5902 5902 5903 5904 5904 5905 5905 5905 5906 5906 5906 5907 5907 5907 5907 5907 5908 5908 5907 5907 5907 5907 5907 5907 5907 5907 5907 5907
5897 5897 5897 5896 5897 5897 5897 5898 5898 5899 5899 5900 5900 5901 5901 5902 5902 5903 5903 5904 5904 5904 5905 5905 5906 5906 5906 5907 5907 5907 5907 5908 5908 5908 5907 5907 5907 5907 5907 5907 5907 5907 5907
5897 5897 5896 5896 5896 5896 5897 5897 5898 5898 5899 5899 5900 5901 5901 5901 5902 5902 5903 5903 5903 5904 5904 5905 5905 5905 5906 5906 5907 5907 5907 5907 5908 5908 5907 5907 5907 5907 5907 5907 5907 5907 5907
5897 5896 5896 5895 5896 5896 5896 5897 5897 5897 5898 5899 5900 5900 5901 5901 5901 5901 5902 5902 5903 5903 5904 5904 5904 5905 5905 5906 5906 5906 5907 5907 5907 5907 5907 5907 5907 5907 5907 5907 5907 5906 5906
5896 5895 5895 5894 5894 5894 5895 5896 5896 5897 5897 5898 5898 5899 5900 5900 5900 5900 5901 5901 5901 5902 5902 5903 5903 5903 5904 5905 5905 5906 5906 5906 5906 5906 5906 5906 5906 5906 5906 5906 5906 5906 5906
5895 5895 5894 5893 5893 5893 5894 5894 5895 5895 5896 5896 5897 5898 5898 5899 5899 5899 5899 5900 5900 5900 5901 5901 5902 5902 5903 5903 5904 5904 5905 5905 5905 5905 5905 5905 5906 5906 5906 5905 5905 5905 5905
5895 5894 5893 5892 5892 5892 5892 5893 5893 5894 5894 5895 5895 5896 5897 5897 5897 5897 5897 5898 5898 5899 5899 5900 5900 5901 5901 5902 5902 5903 5903 5904 5904 5904 5904 5904 5904 5905 5904 5904 5904 5904 5904
5893 5893 5893 5892 5891 5891 5891 5891 5891 5892 5892 5893 5894 5894 5895 5895 5895 5895 5895 5895 5896 5897 5897 5898 5899 5899 5900 5900 5901 5901 5902 5902 5902 5903 5903 5903 5903 5903 5903 5903 5902 5902 5902
5891 5891 5891 5890 5890 5889 5889 5889 5889 5889 5890 5890 5891 5892 5893 5893 5893 5893 5893 5893 5894 5894 5895 5896 5896 5897 5898 5898 5899 5899 5900 5900 5900 5901 5901 5901 5901 5901 5901 5901 5901 5900 5900
5889 5889 5888 5888 5887 5887 5887 5887 5887 5887 5888 5888 5890 5890 5891 5891 5891 5891 5891 5891 5891 5892 5892 5893 5893 5894 5895 5895 5896 5896 5897 5897 5898 5898 5898 5899 5899 5899 5899 5898 5898 5898 5898
5886 5886 5885 5884 5884 5884 5885 5885 5886 5886 5886 5887 5888 5888 5889 5889 5889 5889 5889 5888 5888 5888 5889 5889 5890 5891 5892 5893 5893 5893 5894 5894 5895 5895 5896 5896 5896 5896 5896 5896 5895 5895 5895